Home > Weather > Johor Bahru > Past weeks

Flag for Malaysia Past Weather in Johor Bahru, Malaysia — Yesterday and Last 2 Weeks

Now
81 °F

Passing clouds.


Feels Like: 87 °F
Forecast: 77 / 87 °F
Wind: No wind

Location: Singapore / Paya Lebar

Current Time: Jul 26, 2016 at 6:14:15 AM

Latest Report: Jul 26, 2016 at 5:00 AM


Visibility: N/A

Pressure: 29.80 "Hg

Humidity: 89%

Dew Point: 77 °F

Location of Johor BahruLocation

Past Weather in Johor Bahru — Graph

°F

Johor Bahru Temperature Yesterday

Maximum temperature yesterday: 86 °F (at 4:00 PM)
Minimum temperature yesterday: 79 °F (at 6:00 AM)
Average temperature yesterday: 83 °F

High & Low Weather Summary for the Past Weeks

 TemperatureHumidityPressure
High91 °F (Jul 12, 1:00 PM)100% (Jul 20, 9:00 AM)29.89 "Hg (Jul 20, 9:00 AM)
Low75 °F (Jul 20, 8:00 AM)56% (Jul 16, 5:00 PM)29.71 "Hg (Jul 12, 4:00 PM)
Average83 °F80%29.80 "Hg
* Reported Jul 11 5:00 AM — Jul 26 5:00 AM, Johor Bahru, Weather by CustomWeather, © 2016

Note: Actual official high and low records may vary slightly from our data, if they occured in-between our weather recording intervals... More about our weather records

Advertising

Johor Bahru Weather History for the Previous 24 Hours

Scroll right to see more
 ConditionsComfort  
Time TempWeatherWind HumidityBarometerVisibility
5:00 AM
Tue, Jul 26
81 °FPassing clouds.No wind89%29.80 "HgN/A
11:00 PM
Mon, Jul 25
82 °FPassing clouds.3 mph79%29.83 "HgN/A
10:00 PM82 °FPassing clouds.2 mph74%29.83 "HgN/A
9:00 PM82 °FPassing clouds.2 mph74%29.80 "HgN/A
8:00 PM84 °FPassing clouds.3 mph70%29.77 "HgN/A
7:00 PM84 °FBroken clouds.2 mph70%29.77 "HgN/A
6:00 PM86 °FBroken clouds.3 mph70%29.77 "HgN/A
5:00 PM86 °FLight rain. Broken clouds.3 mph66%29.77 "HgN/A
4:00 PM86 °FBroken clouds.No wind66%29.77 "HgN/A
3:00 PM84 °FLight rain. Partly sunny.3 mph66%29.77 "HgN/A
2:00 PM84 °FLight rain. Partly sunny.5 mph70%29.80 "HgN/A
1:00 PM82 °FPartly sunny.8 mph74%29.83 "HgN/A
12:00 PM82 °FPartly sunny.10 mph79%29.86 "HgN/A
11:00 AM84 °FPartly sunny.9 mph79%29.86 "HgN/A
10:00 AM82 °FPartly sunny.9 mph79%29.86 "HgN/A
9:00 AM81 °FPartly sunny.3 mph84%29.86 "HgN/A
8:00 AM79 °FPartly sunny.No wind89%29.83 "HgN/A
7:00 AM79 °FPassing clouds.No wind84%29.80 "HgN/A
6:00 AM79 °FPassing clouds.2 mph89%29.80 "HgN/A
Weather by CustomWeather, © 2016

See weather overviewHow to use our weather pages